Location: Nitra
(0.0000°N, 18.0833°E)
Time: 05:08:16
(UTC+01:00)

CZ-2C R/B - Pass Details

Date: 24 January 2021
Orbit: 704 x 908 km, 98.1° (Epoch: 04 March)

Event Time Altitude Azimuth Distance (km) Brightness Sun altitude
Rises 18:54:33 0° 177° (S) 3,156 6.4 -12.9°
Reaches altitude 10° 18:56:49 10° 182° (S) 2,255 5.7 -13.4°
Maximum altitude 19:01:39 54° 258° (WSW) 934 3.8 -14.6°
Drops below altitude 10° 19:06:43 10° 335° (NNW) 2,367 5.6 -15.8°
Sets 19:09:10 0° 340° (NNW) 3,328 6.3 -16.3°
